Dewpoint
55 54 54 54 53 53 53 53 52 52 51 50 50 50 50 50 50 50 50 50 50 50 50 49 49 49 48 48 48 48 48 48 47 47 47 46 45 44 43 41 41 41 42 43 44 43 41 37 26 17 20 20 22 24 28 35 38 35 31 34 36 38 40 51 54 54 54 54 54 54 53 53 53 52 52 52 52 52 52 52 52 53 53 53 53 53 53 53 53 53 53 53 53 53 53 53 53 53 53 53 53 53 53
54 54 54 53 53 53 53 53 52 52 51 50 50 49 49 50 50 49 49 49 49 49 49 49 49 49 48 48 47 47 47 47 47 47 47 46 45 44 43 41 40 39 40 41 41 41 40 33 23 16 20 20 20 22 25 33 34 33 30 32 35 38 44 51 53 53 53 53 53 53 53 53 53 52 52 52 52 52 52 52 52 52 52 52 52 52 52 52 52 53 53 53 53 53 53 53 53 53 53 53 53 53 53
54 54 53 53 53 53 53 53 52 52 52 51 50 49 49 49 49 49 49 48 49 49 49 49 49 48 48 48 47 47 46 47 47 47 46 46 45 44 43 42 40 38 38 38 39 39 39 36 26 17 19 20 20 21 24 31 34 33 30 32 34 38 44 51 53 53 53 53 53 53 53 52 52 52 52 52 52 52 52 52 52 52 52 52 52 52 52 52 52 52 52 52 53 53 53 53 53 53 53 52 52 52 52
54 53 53 53 53 53 53 53 52 52 52 51 50 49 49 49 49 49 48 48 48 49 49 49 49 48 48 48 47 47 46 46 46 46 46 45 45 44 43 42 40 39 38 37 38 38 37 36 30 23 19 20 20 20 23 32 35 34 29 31 33 38 49 52 52 53 53 53 52 52 52 52 52 52 52 52 52 51 51 51 51 52 52 52 52 52 52 52 52 52 52 52 52 52 52 52 52 52 52 52 52 52 52
54 53 53 53 53 53 53 52 52 52 52 51 50 50 49 49 49 48 48 48 48 49 49 48 48 48 48 47 47 47 46 46 46 46 46 45 44 43 42 41 40 38 37 37 36 35 34 35 30 24 20 20 21 21 22 31 34 34 29 29 33 41 52 52 52 52 52 52 52 52 52 52 52 52 52 51 51 51 51 51 51 51 51 51 51 51 51 51 51 51 52 52 52 52 52 52 52 52 52 52 52 52 52
53 53 53 53 53 53 53 52 52 52 52 51 51 50 49 49 48 48 48 48 48 48 48 48 47 47 47 47 47 46 46 46 46 46 45 45 44 43 42 41 39 38 36 35 35 33 28 27 23 20 21 21 23 23 23 29 30 28 25 27 35 45 51 52 52 52 52 52 52 52 51 51 51 51 51 51 51 51 51 50 50 50 51 51 51 51 51 51 51 51 51 51 51 51 52 52 52 52 52 52 52 52 52
53 53 53 53 53 52 52 52 52 52 52 52 51 50 50 49 48 47 47 47 47 47 47 47 47 47 47 46 46 46 46 45 45 45 45 44 44 43 42 40 39 37 36 34 33 31 27 20 20 22 23 24 25 25 25 27 29 28 25 28 38 49 50 51 51 52 52 52 52 52 51 51 51 51 51 51 51 51 50 50 50 50 50 50 50 50 50 50 50 50 50 50 51 51 51 51 51 51 51 51 51 51 51
53 53 53 53 52 52 52 52 52 52 52 52 51 51 50 49 48 47 47 46 46 46 46 46 46 46 45 45 45 45 45 44 44 44 44 43 43 43 42 41 39 38 36 34 33 32 31 24 21 22 23 26 28 29 29 25 24 24 25 29 40 49 50 50 51 51 51 51 52 51 51 51 50 50 50 50 50 50 50 50 49 49 49 50 50 50 50 50 50 50 50 50 50 50 50 51 51 51 51 51 51 51 51
53 53 52 52 52 52 52 52 52 52 52 52 51 51 50 49 48 47 47 46 46 46 46 46 45 45 45 44 44 44 43 43 43 43 43 43 43 42 42 40 39 38 36 35 34 33 33 28 23 20 23 26 28 30 33 24 22 23 23 32 41 48 49 50 50 50 51 51 51 51 51 50 50 50 50 50 50 50 50 50 49 49 49 49 49 49 49 49 49 49 49 49 49 50 50 50 50 50 51 51 51 51 51
53 53 52 52 52 52 52 52 52 52 52 52 51 51 50 49 48 47 47 46 46 45 45 45 45 44 44 44 44 43 43 43 43 43 42 42 42 42 41 40 39 38 37 35 34 34 34 27 22 20 23 26 29 32 34 24 24 26 24 35 43 47 48 49 49 50 50 50 50 50 50 50 50 49 49 49 49 49 50 49 49 49 49 49 49 49 49 49 49 49 49 49 49 49 49 49 50 50 50 50 50 50 50
53 53 52 52 52 52 52 52 52 52 52 51 51 51 50 49 49 48 47 47 46 45 44 44 44 44 43 43 43 43 43 42 42 42 42 41 41 41 40 39 38 38 37 35 34 34 35 24 20 20 22 25 30 33 29 24 24 26 23 35 43 47 47 48 48 49 49 49 49 49 49 49 49 49 49 49 49 49 49 49 49 49 48 48 48 48 48 48 48 48 48 48 48 49 49 49 49 49 50 50 50 50 50
53 52 52 52 52 52 52 52 52 52 52 51 51 51 50 49 49 48 47 47 46 45 44 43 43 43 43 43 43 42 42 42 42 41 41 41 40 40 39 38 38 37 36 36 35 34 34 22 19 20 20 22 25 27 24 23 22 21 20 36 43 46 47 47 47 47 48 48 48 48 48 48 48 48 48 48 48 48 48 48 48 48 48 48 48 48 48 48 48 48 48 48 48 48 48 49 49 49 49 49 50 50 50
53 52 52 52 52 52 52 52 52 52 52 51 51 51 50 50 49 48 48 47 46 45 44 43 42 42 42 42 42 42 42 41 41 40 40 40 40 39 38 38 37 36 36 36 35 34 30 20 18 18 19 22 22 22 25 28 25 24 28 40 44 45 46 47 47 47 47 47 47 47 47 47 48 48 48 48 48 48 48 47 47 47 47 48 48 48 48 48 48 48 48 48 48 48 48 48 49 49 49 49 49 49 50
53 52 53 52 52 52 52 52 52 52 52 51 51 51 50 50 49 49 48 47 46 45 44 43 42 41 41 41 41 41 41 40 40 39 39 39 39 38 38 37 36 36 36 36 33 27 23 20 19 19 19 20 20 24 34 34 29 26 35 41 43 44 45 46 47 47 47 47 47 47 47 47 47 47 47 47 47 47 47 47 47 47 47 47 47 47 47 48 48 48 48 47 47 47 48 48 48 48 49 49 49 49 49
53 53 52 52 52 52 51 51 51 51 51 51 51 51 50 50 49 49 48 47 46 45 44 43 42 41 40 40 40 40 40 39 39 39 38 38 38 38 38 37 36 36 36 32 23 16 19 18 20 22 23 21 20 22 30 31 28 29 40 41 42 43 45 46 46 47 46 46 46 46 46 46 47 47 47 47 47 47 47 47 47 47 47 47 47 47 47 47 47 47 47 47 47 47 47 48 48 48 48 48 48 49 49
53 53 52 52 52 51 51 51 51 51 51 51 51 50 50 50 49 49 48 47 47 46 45 43 43 41 40 39 39 40 40 40 39 39 39 38 38 38 38 37 37 36 33 23 19 18 17 18 20 23 27 22 20 21 26 29 30 34 41 41 42 43 44 45 46 46 46 46 45 45 45 46 46 46 46 46 47 47 47 47 47 47 47 47 47 47 47 47 47 47 47 47 47 47 47 47 48 48 48 48 48 48 49
53 52 52 52 52 51 51 51 51 51 51 51 50 50 50 50 49 49 48 47 47 46 45 44 43 42 40 39 39 38 38 39 38 38 41 39 39 38 38 37 36 33 26 20 19 19 18 18 20 22 24 21 19 20 27 29 33 36 41 41 41 43 43 44 45 46 46 45 45 45 45 45 45 46 46 46 46 46 46 47 47 47 46 46 46 46 46 47 47 47 47 47 47 47 47 47 47 47 48 48 48 48 48
53 52 52 52 51 51 51 51 51 50 50 50 50 50 50 50 49 49 48 48 47 46 45 44 43 42 41 39 38 35 27 28 29 32 37 39 40 39 38 36 31 25 20 20 20 19 19 19 20 21 22 21 18 19 29 33 35 38 39 40 41 42 43 44 44 45 45 45 45 45 44 45 45 45 45 46 46 46 46 46 47 47 46 46 46 46 46 46 46 46 47 47 47 47 47 47 47 47 47 48 48 48 48
53 52 52 52 51 51 51 50 50 50 50 50 50 50 50 49 49 49 48 48 47 47 46 44 43 42 41 39 36 29 17 19 21 24 25 33 38 39 36 31 25 20 20 20 20 20 20 19 20 20 21 21 19 21 34 34 35 37 38 40 41 42 43 43 44 44 45 45 45 45 45 45 45 45 45 45 45 45 46 46 46 47 47 46 46 46 46 46 46 46 46 46 46 47 47 47 47 47 47 47 47 48 48
53 52 52 52 51 51 50 50 50 50 50 50 50 50 49 49 49 49 48 48 47 47 46 45 44 43 41 35 26 19 16 18 20 21 22 25 28 29 27 24 20 19 20 20 20 20 20 20 20 21 21 21 20 23 32 33 34 37 38 39 41 42 43 43 44 44 44 45 45 45 45 45 45 45 45 45 45 45 45 46 46 46 47 46 46 46 46 46 46 46 46 46 46 46 46 46 47 47 47 47 47 47 48
48 48 49 50 50 49 50 49 49 50 51 50 49 48 47 49 49 48 48 48 47 47 47 46 39 33 34 27 20 15 16 17 18 20 22 21 22 22 21 21 20 20 20 20 20 20 20 20 21 21 21 20 19 20 28 33 35 36 37 39 40 42 43 43 43 44 44 44 45 45 45 45 45 45 45 45 45 45 45 46 46 46 47 47 46 46 46 46 46 46 46 46 46 46 46 46 46 46 47 47 47 47 47
44 44 45 44 45 46 47 46 46 47 48 50 47 43 41 45 46 46 47 44 43 43 42 39 31 25 26 21 18 16 15 16 16 18 20 20 20 22 21 21 21 21 21 21 21 21 21 21 22 22 21 20 19 19 23 32 35 36 37 38 40 41 42 43 43 43 44 44 45 45 46 45 45 45 45 45 45 45 45 46 46 46 46 47 47 46 46 47 46 46 46 46 46 46 46 46 46 46 46 47 47 47 47
43 43 42 42 42 42 43 42 43 43 43 47 43 38 37 38 39 40 40 35 34 34 34 31 27 24 22 18 16 15 14 16 16 16 17 18 20 21 21 21 21 21 21 21 21 21 22 22 22 22 21 20 20 20 22 31 35 35 36 38 39 40 41 42 43 43 44 44 45 45 46 46 45 45 45 45 45 45 45 46 46 46 46 46 46 46 46 47 47 46 46 46 46 46 46 46 46 46 46 47 47 47 47
42 42 42 41 41 40 39 39 40 40 40 43 41 37 37 36 35 34 34 31 30 30 30 29 26 23 19 16 15 14 14 17 19 19 16 17 19 20 20 20 21 21 21 21 21 21 21 22 22 22 22 21 20 20 24 32 35 35 36 37 38 40 41 42 43 43 44 44 45 45 45 46 46 45 45 45 45 45 45 46 46 46 46 46 46 46 46 46 46 46 46 46 46 46 46 46 46 46 46 46 47 47 47
41 42 41 41 40 39 38 38 38 38 38 38 37 37 37 35 33 32 32 31 29 28 29 28 26 23 18 16 15 13 13 17 20 21 16 16 17 19 20 20 20 21 21 20 20 21 21 21 21 22 21 21 20 20 25 33 35 35 36 37 38 40 41 42 43 43 44 44 44 45 45 46 46 46 46 45 45 45 45 46 46 46 46 46 46 46 46 46 46 46 46 46 46 46 46 46 46 46 46 46 46 47 47
40 41 41 40 40 39 37 38 38 38 37 35 36 36 36 34 32 30 30 30 29 28 27 26 24 22 20 18 16 14 13 16 19 20 16 16 16 17 19 19 20 20 20 20 20 21 21 21 21 21 21 21 20 21 25 32 35 35 35 37 38 39 41 41 42 43 43 44 44 45 45 45 46 46 46 46 46 45 45 46 46 46 46 46 46 46 46 46 46 46 46 46 46 46 46 46 46 46 46 46 46 47 47
40 41 41 39 39 38 38 37 37 37 37 35 34 34 36 34 32 30 29 28 28 27 27 25 24 22 20 19 17 16 13 14 17 19 17 16 16 17 17 18 19 20 20 20 20 20 21 21 20 20 21 20 20 20 21 29 33 34 35 36 38 39 40 41 41 42 43 44 44 45 45 45 46 46 46 46 46 46 46 46 46 46 46 46 46 46 46 46 46 46 46 46 46 46 46 46 46 46 46 46 46 47 47
40 40 40 39 38 38 38 38 37 37 37 34 33 33 34 34 33 31 29 27 26 26 28 26 24 23 21 20 18 16 14 14 15 17 17 16 16 16 17 17 18 19 19 20 20 20 20 20 20 20 20 20 20 20 20 25 30 34 34 35 37 38 39 40 41 42 43 44 44 45 45 45 46 46 46 46 46 46 46 46 46 46 46 46 46 46 46 46 46 46 46 46 46 46 46 46 46 46 46 46 47 47 47
40 40 40 39 39 39 39 38 38 37 36 34 33 32 31 33 33 32 30 28 25 25 26 25 25 24 22 21 20 18 16 14 14 15 16 16 16 16 17 17 17 18 18 19 19 19 20 20 20 20 20 20 20 20 20 23 28 34 34 35 36 38 39 40 41 42 43 44 44 45 45 45 46 46 46 46 46 46 46 46 46 46 46 46 46 46 46 46 46 46 46 46 46 46 46 46 46 47 47 47 47 47 47
40 40 39 38 38 39 40 39 38 37 35 34 34 33 30 30 31 32 31 28 26 24 23 23 23 23 22 21 20 20 20 20 18 15 15 16 16 16 17 16 17 17 17 18 18 19 19 19 20 20 20 20 20 19 19 20 26 33 34 35 36 37 38 39 40 41 43 43 44 45 45 45 46 46 46 46 46 46 46 46 46 46 46 46 46 46 46 46 46 46 46 46 46 46 46 46 47 47 47 47 47 47 47
39 39 38 38 38 39 39 39 38 38 35 34 34 34 32 30 29 30 30 29 26 24 22 21 21 21 21 21 20 20 21 24 21 17 15 15 15 16 16 16 16 16 17 17 17 18 18 18 19 19 19 19 19 19 19 18 24 30 34 34 35 36 37 38 40 41 42 43 44 45 45 45 46 46 46 46 46 46 47 47 47 47 47 47 47 47 46 46 46 46 46 46 46 46 46 47 47 47 47 47 47 47 47
38 38 38 38 38 38 39 39 38 38 36 34 35 35 34 30 29 29 28 27 26 25 23 22 21 20 20 20 20 20 20 23 22 20 17 15 15 16 19 20 18 16 16 16 16 17 17 17 18 18 18 18 18 18 18 18 20 24 32 34 35 35 36 38 38 40 41 43 44 44 45 45 46 46 47 47 47 47 47 47 47 47 47 47 47 47 47 46 46 46 46 46 46 46 46 47 47 47 47 47 47 47 47
35 36 36 37 37 38 38 38 38 38 37 35 34 34 34 32 30 29 27 26 25 24 22 21 20 20 19 19 19 20 19 20 20 20 18 16 15 15 16 19 18 17 16 16 16 16 16 16 16 16 17 17 17 17 17 17 17 19 27 31 34 34 35 36 38 39 40 42 43 44 45 45 46 46 47 47 47 47 47 47 47 47 47 47 47 47 47 47 46 46 46 46 46 46 46 47 47 47 47 47 47 47 47
34 34 35 35 36 36 37 37 38 38 37 35 34 34 34 32 30 29 27 26 24 21 20 18 18 17 17 17 18 19 19 18 19 19 18 17 16 16 15 16 17 18 17 17 16 16 16 16 16 16 16 16 16 16 16 17 16 17 19 26 31 33 34 35 36 38 39 40 42 43 44 45 45 46 46 47 47 47 47 47 47 47 47 47 47 47 47 47 46 46 46 46 46 46 46 46 46 47 47 47 47 47 47
32 32 33 34 34 35 36 36 37 37 37 35 34 33 32 29 28 27 26 25 23 21 19 17 17 16 16 16 17 17 17 17 18 18 18 17 17 16 15 15 16 16 17 17 17 17 16 16 16 16 16 16 16 16 16 16 17 17 17 25 29 32 34 34 35 36 38 39 40 42 43 44 45 45 46 46 47 47 47 47 47 47 47 47 47 47 47 47 47 46 46 46 46 46 46 46 46 46 46 47 47 47 47
31 30 30 32 33 34 35 35 35 36 35 34 33 31 29 27 26 26 25 25 24 23 20 19 18 17 16 16 16 16 16 16 17 18 18 18 17 16 16 15 15 16 17 17 17 17 17 17 16 16 16 16 16 16 16 16 17 18 18 21 25 29 31 32 34 35 36 38 39 40 42 43 44 45 45 46 46 46 46 47 47 47 47 47 47 47 47 47 47 47 46 46 46 46 46 46 46 46 46 46 47 47 47
30 29 28 29 30 31 33 33 34 34 34 33 31 29 27 26 26 25 25 25 24 23 22 20 21 22 22 19 17 16 17 18 17 17 18 18 18 17 16 16 16 16 16 17 18 18 17 17 17 16 16 16 16 16 16 16 16 17 18 19 20 23 25 27 29 32 34 36 38 39 40 42 43 43 44 45 45 45 45 46 46 46 47 47 46 46 46 47 47 47 47 47 47 47 46 46 46 46 46 46 46 46 46
30 29 28 27 28 29 30 31 31 31 30 29 29 28 26 26 25 25 25 24 23 23 22 21 22 23 25 21 20 19 18 18 17 17 17 17 18 18 18 17 16 16 16 16 17 18 17 17 17 17 16 16 16 16 16 16 16 16 17 17 18 19 20 21 23 26 29 33 35 37 38 40 41 42 43 44 44 45 45 45 46 46 46 46 46 46 46 46 47 47 47 47 47 47 47 46 46 46 46 46 46 46 46
30 29 28 27 26 26 27 28 28 28 27 27 26 25 25 25 24 24 23 23 23 23 22 22 21 21 21 21 20 20 22 20 19 17 17 17 17 17 17 18 18 17 17 17 17 17 17 17 17 17 17 16 16 16 16 16 16 16 16 16 17 17 18 19 19 20 23 27 30 34 36 37 38 40 41 42 43 43 44 44 45 45 46 46 46 46 46 46 46 46 47 47 47 47 47 46 46 46 46 46 46 46 46
31 30 29 28 27 26 26 25 25 24 24 24 24 23 22 23 22 22 22 22 22 22 22 21 20 20 20 20 20 20 20 21 20 18 18 17 16 16 17 19 19 19 18 19 18 18 17 17 17 17 17 16 16 16 16 16 16 16 16 16 16 16 16 18 19 20 20 20 24 28 33 35 36 38 39 40 41 42 43 44 44 44 45 45 45 46 46 46 46 46 46 46 46 46 46 46 46 46 45 45 45 46 46
32 31 30 29 28 27 25 23 22 22 21 22 22 21 20 20 20 20 20 20 21 21 21 20 20 20 19 20 20 19 19 20 19 18 17 17 16 16 16 18 18 18 18 20 20 19 17 17 17 16 17 17 16 16 16 16 16 16 16 15 15 16 17 20 22 22 20 20 20 23 29 32 34 35 37 38 39 41 42 43 43 43 44 44 44 45 45 45 46 46 46 46 46 46 46 46 46 45 45 45 45 45 45
33 31 30 29 29 27 25 22 21 20 20 20 20 20 19 19 19 19 19 19 20 20 21 21 20 20 19 19 19 19 18 19 18 18 17 17 17 16 16 17 17 17 18 20 20 19 19 18 17 17 16 16 16 16 16 16 16 16 16 15 16 16 20 22 22 21 20 20 21 22 25 30 33 34 35 36 38 39 40 41 42 43 43 43 44 44 45 45 45 45 45 45 45 45 45 46 45 45 45 45 45 45 45
33 32 30 29 28 27 25 22 21 21 20 20 20 20 19 19 19 19 19 19 19 20 21 21 21 20 19 19 19 18 17 17 17 17 17 17 17 17 16 16 16 16 17 18 19 18 19 19 20 20 20 18 17 16 16 16 16 16 16 16 16 17 19 21 21 20 21 21 21 22 22 26 30 33 34 35 36 38 39 40 41 41 42 43 43 43 44 44 44 45 45 45 45 45 45 45 45 45 45 45 45 45 45
34 32 30 29 28 26 24 23 22 21 21 20 20 19 19 18 18 18 19 19 19 19 20 21 21 21 20 19 19 18 17 16 16 16 16 16 16 16 16 16 16 16 16 16 17 17 17 18 20 22 23 21 19 17 17 16 16 16 16 16 16 16 18 19 20 21 21 22 22 22 21 22 25 29 32 33 35 36 37 38 39 41 42 42 43 43 44 44 44 44 44 44 45 45 45 45 45 45 45 45 45 45 45
34 32 30 29 27 25 24 23 23 22 21 21 20 20 18 18 18 18 19 19 19 19 19 20 21 21 21 20 19 18 17 17 16 16 15 15 15 15 16 16 16 16 16 16 16 16 16 18 20 21 21 20 19 18 18 18 18 17 16 16 16 17 20 20 20 20 20 21 21 21 21 21 22 23 25 28 30 32 34 36 38 40 41 42 43 43 43 43 43 43 44 44 44 44 44 44 45 45 45 45 45 45 45
33 32 30 29 27 25 24 22 22 23 22 21 21 20 19 19 19 19 20 19 19 19 19 20 20 20 22 21 20 18 17 16 16 17 17 16 16 16 16 16 16 16 16 16 16 16 16 19 19 18 18 18 18 18 18 20 20 20 17 16 16 18 20 20 20 20 19 20 21 21 21 21 20 20 21 22 23 25 28 33 36 38 40 41 42 43 43 43 43 43 43 43 43 44 44 44 44 45 45 45 45 45 45
32 31 30 29 27 25 24 22 22 23 22 22 21 20 20 20 19 19 19 19 19 19 20 20 20 20 20 23 22 20 18 17 17 17 18 17 17 18 20 20 18 18 17 17 16 16 17 18 18 17 16 18 18 17 17 19 20 20 18 18 18 19 20 20 20 20 20 20 20 20 21 20 20 20 20 20 20 20 22 27 31 35 37 39 40 41 42 42 42 42 42 43 43 43 44 44 44 44 45 45 45 45 45
32 32 30 29 28 26 25 23 23 23 23 22 22 21 20 20 20 20 20 20 19 19 21 22 21 19 19 20 21 20 19 18 17 16 16 16 16 16 19 19 18 18 18 18 17 18 20 18 17 16 16 16 16 16 16 17 18 19 19 20 20 20 20 20 20 20 20 19 18 19 21 20 20 19 18 20 20 20 20 22 26 30 34 36 38 39 40 40 40 41 41 42 43 43 43 44 44 44 44 45 45 45 44
32 32 31 29 28 27 26 24 24 25 24 24 23 23 22 21 21 21 22 22 21 20 20 22 23 22 20 19 19 19 19 18 18 17 16 16 15 16 16 16 16 16 16 17 17 19 23 19 17 17 17 16 16 16 17 17 18 18 19 20 20 19 19 20 20 20 19 17 18 19 20 20 20 19 18 19 20 20 20 20 21 24 28 33 35 36 38 38 39 39 40 41 42 43 43 43 44 44 44 45 45 45 44
31 31 30 29 28 27 27 25 25 25 25 24 24 24 24 23 24 24 25 23 22 20 20 20 22 22 21 20 19 19 19 18 17 17 16 16 15 15 16 16 16 16 16 16 17 18 20 18 17 16 16 16 16 17 17 18 18 18 18 18 18 18 18 18 19 20 20 19 19 19 20 20 20 20 19 20 20 20 20 20 20 20 24 27 30 33 34 36 38 38 39 40 41 42 43 43 43 44 44 44 44 44 44
30 30 30 29 29 28 28 27 26 25 25 26 26 25 25 26 27 26 25 23 21 20 20 20 20 21 22 20 20 20 19 18 18 17 16 16 16 16 15 16 16 16 17 17 18 19 19 17 16 16 16 17 17 18 18 18 17 17 17 18 18 17 17 17 18 19 20 20 20 19 19 19 20 20 20 20 20 20 20 20 20 20 22 21 23 25 27 31 34 37 38 39 39 40 41 42 43 43 43 43 43 43 44
29 29 29 29 29 29 29 28 27 27 28 28 26 25 25 25 25 25 25 23 22 21 20 20 20 20 20 20 20 20 18 19 19 19 17 17 17 16 16 16 16 15 16 16 18 19 20 18 17 17 17 17 17 17 17 18 18 17 17 18 18 17 17 17 18 18 20 20 20 20 20 20 20 20 20 20 20 20 20 20 20 20 20 20 22 24 26 29 32 34 36 37 38 38 39 40 41 42 42 42 43 43 43
29 29 29 29 29 29 29 29 28 27 28 27 26 26 25 25 24 24 24 24 23 22 22 21 20 20 20 20 20 20 20 20 20 19 20 19 17 16 16 15 15 15 16 15 16 17 19 19 19 18 18 17 16 16 17 17 18 18 18 17 17 17 17 18 18 18 19 18 19 20 20 20 20 20 20 20 19 19 19 20 20 20 20 20 22 23 24 28 31 33 34 35 36 37 38 38 39 40 41 41 42 43 43
30 30 29 29 30 30 30 29 29 28 28 27 27 26 26 25 25 24 24 24 23 23 23 23 22 21 20 20 20 20 21 22 21 20 20 20 18 17 16 16 16 16 16 15 15 15 16 17 17 17 18 18 18 17 16 17 17 17 17 16 16 17 17 18 18 18 18 18 19 19 19 20 21 21 20 20 20 19 20 20 20 20 20 20 20 21 21 25 29 32 33 34 35 36 37 38 38 39 40 41 42 42 43
31 30 30 30 30 30 30 29 29 29 28 27 27 26 26 25 25 25 24 23 23 23 22 23 23 21 20 20 20 20 19 22 22 21 20 20 19 19 18 18 19 19 17 16 15 16 16 16 16 16 17 17 17 17 17 17 17 18 19 19 17 17 17 17 18 18 18 18 19 19 18 18 19 19 20 20 20 20 20 20 20 20 20 20 21 22 24 27 29 30 31 32 34 35 37 38 38 39 40 41 42 42 43
31 30 30 30 30 30 30 30 29 29 28 28 27 26 26 26 26 25 24 24 23 23 22 22 22 21 21 21 21 20 20 21 21 21 20 20 20 21 20 19 18 18 17 17 18 19 20 15 15 17 17 16 16 16 17 17 17 18 20 20 18 17 17 17 18 18 18 18 19 19 19 19 18 18 19 20 20 20 19 19 20 20 20 20 21 22 23 25 25 26 28 29 31 34 36 37 38 39 40 41 42 42 43
30 30 30 30 30 29 30 30 29 29 29 28 27 27 26 26 26 25 25 24 24 23 23 23 22 22 22 22 21 21 21 20 22 24 22 21 21 22 21 20 20 20 20 20 20 20 20 17 17 19 19 17 17 17 17 17 17 17 19 18 18 18 18 18 18 18 18 18 18 19 19 20 19 18 17 18 19 20 20 20 20 20 20 20 20 20 21 22 24 25 25 27 28 29 34 35 37 38 39 41 41 42 42
30 29 29 29 29 29 29 29 29 29 29 29 28 27 26 26 26 25 25 25 24 24 23 23 23 22 22 22 22 21 21 20 20 22 24 22 22 22 22 21 21 21 22 22 21 21 20 19 19 19 19 19 18 17 16 16 16 16 17 17 18 18 18 17 17 17 18 18 18 18 18 19 18 17 17 17 18 20 20 20 20 20 20 20 20 20 20 21 24 25 25 26 27 29 32 33 35 36 38 39 40 41 42
29 29 29 29 29 29 29 29 29 29 29 29 29 28 27 26 26 25 25 25 24 24 24 23 23 23 24 23 22 21 21 21 21 21 21 21 21 21 21 21 21 22 23 23 22 21 20 20 19 19 19 19 19 19 16 16 16 16 16 17 17 18 17 17 16 16 16 17 17 17 17 17 17 17 17 17 18 19 19 20 20 20 20 20 20 20 21 25 26 28 28 30 30 31 31 32 34 35 37 38 40 40 41
28 28 28 28 28 28 28 28 28 28 28 29 29 28 27 26 26 26 26 25 25 26 26 24 24 24 24 23 23 22 21 21 21 21 20 20 20 21 21 21 20 20 22 21 21 21 20 20 20 20 19 19 18 19 19 17 16 15 15 16 16 16 17 16 16 17 16 17 17 17 17 17 17 17 17 18 18 18 19 19 20 20 20 20 20 20 21 23 24 26 28 30 32 32 32 33 34 35 37 38 39 40 41
27 28 28 28 28 28 28 28 28 28 28 29 29 28 27 27 26 26 26 25 25 26 26 25 24 24 24 23 23 22 22 22 21 21 21 20 20 21 23 22 21 20 22 21 21 20 20 20 20 20 20 19 19 18 18 19 18 17 16 16 16 16 16 16 17 18 17 17 18 18 17 17 17 17 17 17 18 18 19 19 19 20 20 20 20 20 21 22 22 23 24 27 29 32 32 33 34 36 37 38 39 40 41